Weather History for KFOK - October, 2012

Change the Weather History Date:

Sunday, October 28, 2012

  Actual Average Record
Temperature  
Mean Temperature 58 °F -  
Max Temperature 61 °F 56 °F 68 °F (2010)
Min Temperature 55 °F 37 °F 23 °F (2001)
Degree Days  
Heating Degree Days 7    
Growing Degree Days 8 (Base 50)    
Moisture  
Dew Point 50 °F    
Average Humidity 75    
Maximum Humidity 84    
Minimum Humidity 56    
Precipitation  
Precipitation 0.00 in - - ()
Sea Level Pressure  
Sea Level Pressure 29.81 in    
Wind  
Wind Speed 15 mph (NE)    
Max Wind Speed 26 mph    
Max Gust Speed 40 mph    
Visibility 10 miles    
Events Rain    
Averages and records for this station are not official NWS values.
T = Trace of Precipitation, MM = Missing Value Source: NWS Daily Summary

Daily Weather History Graph

Daily Weather History Graph

Search for Another Location

Airport or City:

Trip Planner

Search our weather history database for the weather conditions in past years. The results will help you decide how hot, cold, wet, or windy it might be!

Date:

Astronomy

Oct. 28, 2012 Rise Set
Actual Time 7:16 AM EDT 5:50 PM EDT
Civil Twilight 6:48 AM EDT 6:19 PM EDT
Nautical Twilight 6:16 AM EDT 6:51 PM EDT
Astronomical Twilight 5:44 AM EDT 7:23 PM EDT
Moon 5:07 PM EDT (10/28) 6:07 AM EDT (10/28)
Length of Visible Light 11h 30m
Length of Day
10h 34m
Waxing Gibbous, 99% of the Moon is Illuminated
Oct 28
Waxing Gibbous
Oct 29
Full
Nov 6
Last Quarter
Nov 13
New
Nov 20
First Quarter

Hourly Weather History & Observations

Time (EDT) Temp. Dew Point Humidity Pressure Visibility Wind Dir Wind Speed Gust Speed Precip Events Conditions
12:53 AM 57.9 °F 42.1 °F 56% 29.93 in 10.0 mi ENE 9.2 mph 20.7 mph N/A   Clear
1:53 AM 57.0 °F 44.1 °F 62% 29.91 in 10.0 mi NE 12.7 mph 21.9 mph N/A   Clear
2:53 AM 57.0 °F 44.1 °F 62% 29.90 in 10.0 mi NE 8.1 mph 17.3 mph N/A   Clear
3:49 AM 57.2 °F 48.2 °F 72% 29.90 in 10.0 mi ENE 9.2 mph 17.3 mph N/A   Mostly Cloudy
3:53 AM 57.0 °F 48.9 °F 74% 29.90 in 10.0 mi NE 8.1 mph - N/A   Mostly Cloudy
4:53 AM 57.9 °F 51.1 °F 78% 29.88 in 10.0 mi NE 12.7 mph - N/A   Overcast
5:53 AM 57.0 °F 51.1 °F 81% 29.88 in 10.0 mi NE 13.8 mph 25.3 mph N/A   Mostly Cloudy
6:53 AM 57.0 °F 50.0 °F 77% 29.87 in 10.0 mi NE 16.1 mph 23.0 mph N/A   Overcast
7:53 AM 57.0 °F 50.0 °F 77% 29.88 in 10.0 mi NE 15.0 mph 20.7 mph N/A   Overcast
8:53 AM 57.9 °F 51.1 °F 78% 29.88 in 10.0 mi NE 13.8 mph 24.2 mph N/A   Overcast
9:53 AM 59.0 °F 51.1 °F 75% 29.88 in 10.0 mi NE 19.6 mph 27.6 mph N/A   Mostly Cloudy
10:01 AM 59.0 °F 51.8 °F 77% 29.87 in 10.0 mi NE 18.4 mph 27.6 mph N/A   Mostly Cloudy
10:12 AM 59.0 °F 51.8 °F 77% 29.86 in 10.0 mi NE 18.4 mph 27.6 mph N/A   Mostly Cloudy
10:24 AM 59.0 °F 51.8 °F 77% 29.85 in 10.0 mi NE 23.0 mph 28.8 mph N/A   Mostly Cloudy
10:38 AM 59.0 °F 51.8 °F 77% 29.86 in 10.0 mi NE 21.9 mph 33.4 mph N/A   Mostly Cloudy
10:53 AM 60.1 °F 51.1 °F 72% 29.86 in 10.0 mi NE 19.6 mph 29.9 mph N/A   Mostly Cloudy
11:53 AM 57.9 °F 52.0 °F 81% 29.85 in 9.0 mi NE 13.8 mph 24.2 mph N/A   Overcast
1:53 PM 61.0 °F 50.0 °F 67% 29.76 in 10.0 mi NE 23.0 mph 34.5 mph N/A   Overcast
2:53 PM 60.1 °F 50.0 °F 69% 29.75 in 10.0 mi NE 20.7 mph 33.4 mph N/A   Overcast
3:53 PM 59.0 °F 51.1 °F 75% 29.75 in 10.0 mi NE 18.4 mph 32.2 mph N/A   Overcast
4:53 PM 57.9 °F 51.1 °F 78% 29.74 in 10.0 mi NE 23.0 mph 36.8 mph N/A   Overcast
5:19 PM 57.2 °F 51.8 °F 82% 29.74 in 10.0 mi NE 23.0 mph 36.8 mph N/A   Overcast
5:51 PM 57.2 °F 51.8 °F 82% 29.74 in 10.0 mi NE 26.5 mph 35.7 mph N/A   Overcast
5:53 PM 57.9 °F 51.1 °F 78% 29.74 in 10.0 mi NE 21.9 mph 35.7 mph N/A   Overcast
6:53 PM 55.9 °F 51.1 °F 84% 29.74 in 8.0 mi NE 19.6 mph 33.4 mph 0.00 in Rain Light Rain
7:53 PM 57.0 °F 50.0 °F 77% 29.74 in 10.0 mi NE 19.6 mph 28.8 mph 0.00 in   Overcast
8:53 PM 57.0 °F 48.9 °F 74% 29.70 in 10.0 mi NE 19.6 mph 35.7 mph N/A   Overcast
9:53 PM 57.0 °F 46.9 °F 69% 29.67 in 10.0 mi NE 21.9 mph 40.3 mph N/A   Overcast
10:53 PM 55.9 °F 48.9 °F 77% 29.65 in 10.0 mi NE 26.5 mph 35.7 mph 0.00 in   Overcast
11:53 PM 55.0 °F 50.0 °F 83% 29.62 in 10.0 mi NE 19.6 mph 38.0 mph 0.00 in   Overcast